Tracking 32577 objects as of 14-Dec-2025
HD Live streaming from Space Station
objects crossing your sky now

KX-09

Track KX-09 now!
10-day predictions


NORAD ID: 44520
Int'l Code: 2019-058B
Perigee: 579.8 km
Apogee: 592.7 km
Inclination: 97.8 °
Period: 96.3 minutes
Semi major axis: 6957 km
RCS: Unknown
Launch date: August 30, 2019
Source: People's Republic of China (PRC)
Launch site: Jiuquan Satellite Launch Center, China (JSC)
Your satellite tracking list
Your tracking list is empty




NASA's NSSDC Master Catalog

Two Line Element Set (TLE):
1 44520U 19058B   25348.29270712  .00002647  00000-0  24081-3 0  9997
2 44520  97.7835 357.6513 0009306 239.0890 120.9416 14.96043621342384
Source of the keplerian elements: AFSPC